Theta_e
302 300 299 299 299 299 299 300 301 301 300 297 299 300 300 301 300 298 300 299 299 298 300 301 301 301 300 299 298 299 298 298 298 299 300 301 302 300 302 303 305 307 307 308
302 299 298 299 300 301 301 300 300 300 300 298 298 299 299 300 300 300 300 298 299 299 298 300 300 300 300 299 299 298 298 298 298 298 299 300 300 300 299 301 302 304 306 306
301 298 298 299 300 300 302 301 298 298 298 299 298 299 303 301 300 300 300 299 300 299 298 297 299 300 299 299 299 298 298 298 298 298 298 299 301 300 299 301 301 301 302 304
298 296 298 299 300 299 301 298 298 298 298 300 300 298 304 300 299 299 300 300 300 299 298 298 299 299 299 299 299 298 298 298 298 298 297 297 298 300 299 300 300 300 300 304
300 298 298 300 299 298 301 297 298 298 297 298 300 298 301 301 301 299 299 301 300 299 298 297 298 299 299 298 298 298 298 298 298 297 297 297 297 298 298 299 300 300 300 302
297 296 298 298 298 298 298 298 300 298 297 302 301 299 299 300 301 301 301 301 300 298 297 296 299 299 299 298 298 298 298 298 297 297 296 296 296 297 297 298 300 301 300 301
297 298 296 296 297 297 298 302 310 308 306 313 297 298 298 302 301 300 300 299 298 297 296 296 296 298 298 298 298 297 297 297 297 297 296 295 295 296 297 297 298 300 302 302
307 308 297 295 296 295 298 298 303 304 307 304 297 299 300 302 302 300 299 298 298 297 296 296 296 298 298 297 297 296 297 297 297 297 296 295 295 295 296 297 298 299 300 302
306 304 294 295 295 295 297 302 297 299 297 299 299 301 301 302 300 299 299 299 297 296 296 296 297 298 297 297 296 296 296 296 296 297 296 296 296 296 295 296 298 299 301 303
298 304 295 295 295 295 296 297 301 300 301 301 305 304 303 301 301 301 299 297 297 297 297 296 296 297 297 296 296 295 295 295 296 295 295 295 295 295 295 296 298 300 300 301
296 299 300 295 295 298 295 296 296 296 299 303 304 302 302 302 301 300 298 296 297 297 296 295 295 296 296 296 295 295 295 295 295 294 294 294 294 294 295 296 298 298 300 300
297 298 300 301 294 293 295 298 298 299 299 297 299 299 300 301 300 298 296 297 297 297 295 294 294 296 296 295 295 294 295 294 293 292 291 292 294 294 295 296 296 296 296 297
294 298 299 301 295 293 292 296 297 296 297 297 299 300 300 298 296 296 297 297 296 296 295 294 294 295 295 295 294 294 294 293 291 290 290 291 293 293 294 293 294 294 295 296
296 298 299 302 302 296 293 294 295 293 296 298 299 299 300 300 299 298 297 297 295 295 295 294 294 294 294 294 294 293 292 291 290 290 290 290 291 291 292 292 293 293 293 293
294 289 294 294 295 294 293 293 295 295 296 296 299 298 299 299 298 297 297 296 295 295 294 294 294 293 294 293 293 292 291 290 289 289 290 290 290 291 291 291 291 291 291 292
294 292 290 288 294 294 294 295 295 296 296 295 295 295 296 296 296 296 296 296 295 294 294 294 294 293 294 293 292 291 290 289 288 289 290 290 290 289 289 289 289 290 290 291
293 291 288 292 293 292 292 293 294 294 295 295 295 296 297 297 297 298 297 295 295 294 294 293 292 294 293 292 291 290 288 287 288 288 288 287 287 287 288 288 289 289 289 289
295 292 292 291 288 291 300 295 295 295 295 295 295 296 297 297 297 296 296 295 294 294 293 292 292 294 292 290 289 287 287 287 287 287 286 286 286 287 287 288 288 288 288 288
295 294 291 289 291 296 296 295 295 293 297 296 296 296 296 296 296 295 295 295 295 294 293 292 294 293 291 289 288 286 287 286 285 285 285 285 285 286 287 287 287 287 287 287
294 294 291 286 289 292 300 293 294 292 298 296 297 297 297 296 295 295 295 294 294 294 293 292 293 292 290 288 286 286 286 285 284 284 284 285 285 286 286 286 286 286 286 286
291 288 294 292 290 294 295 292 293 297 303 299 297 297 296 296 296 296 295 294 294 294 292 292 293 291 289 288 286 286 286 285 284 285 285 285 285 286 286 286 286 286 286 285
290 292 290 291 291 294 293 291 296 298 298 298 295 295 296 295 295 295 294 293 291 292 291 291 292 291 289 288 286 286 286 285 285 286 286 286 286 286 286 286 286 286 286 285
295 295 293 294 294 295 293 294 293 294 295 296 296 296 296 295 294 293 292 289 287 291 291 291 292 291 289 289 288 286 286 287 286 286 286 286 286 286 286 286 286 286 285 285
292 293 293 294 295 294 293 293 294 293 292 293 294 294 293 293 292 291 291 290 289 291 291 291 289 290 290 289 290 289 288 288 287 287 287 286 286 286 286 286 286 286 286 285
296 293 294 294 295 293 293 293 294 294 292 292 291 291 292 291 291 290 290 290 290 291 292 291 290 291 291 290 291 291 289 289 288 287 287 287 286 286 286 286 286 286 286 286
293 293 296 298 295 297 298 296 294 293 293 293 292 291 290 290 291 290 290 290 290 290 291 290 291 291 292 291 291 292 290 289 288 287 287 288 288 287 286 285 286 286 287 287
Wind_Speed
6 8 6 8 7 5 4 4 8 5 6 6 6 13 13 8 6 7 4 6 6 7 10 13 14 16 20 22 24 26 26 27 27 30 31 27 25 34 30 31 33 33 37 46
4 5 5 2 4 4 2 7 6 8 3 7 9 20 18 11 7 6 5 7 7 6 6 11 14 15 18 22 23 27 28 26 26 27 30 27 28 28 30 30 32 32 31 39
6 4 2 1 2 7 1 3 5 6 11 11 9 8 2 5 8 4 6 9 5 6 7 7 14 19 19 21 24 25 28 31 29 28 27 29 27 23 24 24 27 26 30 33
6 2 0 0 3 4 2 5 6 9 7 4 3 5 4 7 8 7 9 6 4 6 7 6 12 16 20 23 24 25 27 29 30 30 30 26 27 23 27 25 26 28 26 28
2 3 1 2 3 1 3 6 6 4 6 7 4 1 7 7 6 9 8 4 5 5 5 7 13 16 22 23 24 26 28 30 30 29 29 30 27 28 29 29 28 27 26 26
4 2 3 6 2 5 7 6 5 3 3 1 3 1 6 5 5 2 3 3 3 6 6 9 14 20 22 25 27 25 28 28 30 29 29 29 31 31 27 27 30 28 28 27
3 3 3 2 4 3 4 3 2 4 2 4 6 3 11 7 4 3 2 4 8 7 8 8 8 15 21 24 26 25 26 29 30 31 30 27 28 30 30 28 28 30 28 26
0 4 1 2 3 2 3 3 2 4 3 4 5 6 6 4 1 6 6 6 7 7 8 9 10 15 22 25 26 28 28 27 29 31 30 28 29 29 30 28 31 30 30 32
2 1 3 5 3 3 1 2 1 2 2 2 5 7 9 2 4 3 5 3 8 9 9 9 12 19 22 24 28 27 26 29 34 28 28 29 32 31 29 30 32 32 31 29
2 0 2 2 2 1 2 1 1 1 3 5 6 6 10 6 7 4 3 7 9 7 8 8 10 19 24 26 26 26 29 32 29 30 27 29 31 31 31 31 31 31 33 31
2 3 0 3 6 5 2 2 1 1 2 3 4 6 4 2 2 3 5 9 9 8 8 8 10 20 23 24 26 26 29 29 28 30 31 31 31 31 31 30 29 29 29 29
4 3 3 4 4 4 3 2 6 4 4 3 1 9 7 0 2 5 9 9 8 7 8 8 12 19 21 24 24 27 26 27 24 27 32 32 29 30 29 26 26 28 30 31
6 2 2 3 3 4 3 5 4 3 2 6 5 8 1 4 5 7 8 8 8 8 9 8 11 14 18 22 23 24 26 25 26 28 29 29 27 27 25 29 29 31 31 29
5 1 5 6 4 4 3 4 6 6 4 4 17 19 24 21 19 12 14 13 9 8 8 8 10 13 20 20 23 25 25 27 28 27 26 27 27 28 28 28 31 32 30 31
4 5 2 5 5 5 7 9 12 18 21 9 20 14 26 14 16 19 18 9 8 8 8 8 11 11 17 21 23 25 27 27 30 27 25 26 29 27 28 30 31 32 30 29
3 2 2 5 8 6 7 17 18 25 24 23 29 30 36 29 25 17 9 7 8 8 7 8 12 13 16 21 24 25 25 27 27 25 25 26 27 27 28 27 29 29 28 27
6 4 3 5 3 6 8 15 21 10 10 25 18 29 16 18 17 5 7 7 9 8 6 8 10 12 18 21 24 24 27 27 25 23 23 24 26 27 26 27 27 25 23 20
7 5 3 4 3 4 6 5 7 16 16 24 16 20 13 12 9 7 6 7 8 5 6 6 8 15 19 21 21 24 24 23 23 21 23 24 25 25 24 24 23 21 18 16
6 4 2 2 3 10 10 4 7 8 10 23 26 25 20 16 6 13 8 4 4 4 3 6 12 15 19 18 20 22 20 21 19 21 24 26 26 23 21 19 18 18 18 24
1 0 3 3 4 7 4 2 4 4 11 15 24 23 16 4 3 7 6 4 3 4 2 6 11 14 15 18 20 18 18 17 19 22 24 28 26 24 21 18 18 19 21 23
3 1 12 7 5 10 11 8 5 5 8 1 14 14 11 7 9 4 3 3 3 7 4 4 7 9 12 14 15 14 16 18 18 22 24 25 24 21 18 17 19 19 22 26
12 13 6 5 5 14 11 6 8 7 2 3 5 8 8 9 8 7 7 5 6 8 4 4 4 7 9 9 11 11 14 21 20 21 23 23 22 19 18 19 21 22 23 25
6 9 9 15 11 3 22 9 18 1 2 3 4 5 7 7 7 8 7 6 5 13 10 5 4 6 5 5 8 10 13 17 19 18 21 22 20 17 18 19 18 20 23 23
7 8 4 3 10 16 16 21 12 7 11 9 5 6 7 8 9 8 6 6 6 14 13 8 5 6 5 2 4 7 10 12 13 16 19 19 21 21 20 20 20 20 18 19
7 13 10 10 15 9 10 16 24 14 12 12 10 11 13 9 12 9 8 8 8 14 13 11 10 9 9 4 3 3 5 7 9 11 12 15 17 19 20 23 21 22 21 19
7 8 11 11 8 13 10 15 19 16 18 18 16 14 13 12 15 10 9 12 12 14 14 13 14 13 12 10 8 3 1 4 5 7 9 11 13 13 14 15 18 21 21 22
Wind_Direction
7 64 61 29 22 17 28 318 280 315 24 349 285 288 275 266 209 238 284 312 315 315 328 335 331 334 331 330 330 327 325 322 324 322 321 320 321 328 323 319 310 314 320 317
50 80 58 42 337 347 301 291 333 301 78 336 284 287 273 241 229 203 253 286 294 310 325 327 329 330 330 325 329 324 319 320 318 314 311 303 307 311 316 321 320 314 311 307
77 106 126 4 24 12 311 309 6 294 314 266 289 271 215 192 189 166 239 251 279 310 329 319 331 330 331 329 324 319 318 318 315 310 307 305 299 302 307 308 312 321 323 308
73 128 175 336 95 25 315 47 332 308 327 298 39 284 240 175 196 217 232 231 297 303 307 313 322 321 328 325 322 319 314 312 314 311 306 304 301 294 296 295 297 301 310 303
157 162 177 242 80 100 228 13 284 307 291 315 199 283 262 123 201 233 207 176 251 292 305 321 297 320 318 316 318 316 314 312 312 313 309 306 301 294 291 289 286 287 299 305
73 27 333 8 296 232 292 285 204 215 229 328 124 49 277 187 200 153 181 211 319 307 312 287 298 322 314 318 318 318 316 314 313 310 305 304 300 299 293 289 285 284 286 290
156 127 100 329 305 169 302 318 318 349 5 236 116 323 250 283 205 188 268 311 283 291 284 305 321 313 316 319 319 317 315 312 313 310 303 301 299 299 294 292 284 282 277 273
80 316 100 348 49 343 6 26 125 260 300 310 142 235 255 177 334 240 220 259 278 308 323 310 304 319 316 319 319 315 317 315 319 313 309 306 303 295 293 287 288 278 276 273
132 223 97 38 348 343 20 64 60 307 137 349 241 273 286 304 199 165 202 329 315 298 293 308 313 317 319 320 316 317 327 325 320 313 313 311 307 300 294 294 291 282 278 278
192 27 1 113 249 71 336 51 113 326 357 290 284 277 248 240 248 177 20 317 288 301 325 320 317 324 320 317 322 329 327 320 316 316 314 310 306 301 297 293 290 287 283 281
132 111 232 44 201 175 156 167 61 83 162 227 301 254 219 282 351 297 294 276 293 326 330 325 316 316 322 327 327 328 324 319 323 320 320 313 306 305 297 293 290 291 292 293
203 134 219 202 80 47 352 226 173 143 234 242 283 267 266 236 201 245 265 282 309 325 317 312 317 329 331 332 332 329 324 321 322 330 320 313 309 308 301 298 300 299 295 295
194 225 356 304 11 13 220 205 231 63 72 213 159 262 128 148 235 246 285 321 321 311 318 331 330 332 333 331 330 325 321 320 327 325 325 321 315 311 313 309 302 301 297 295
160 221 195 205 186 122 192 221 212 154 185 202 226 275 269 281 297 298 317 313 296 298 330 328 329 330 331 335 331 324 323 323 323 321 322 320 317 314 308 307 306 307 305 299
133 203 208 280 261 207 204 219 198 210 219 211 258 261 271 270 288 299 301 281 293 310 328 334 327 328 333 333 328 328 324 324 325 317 318 315 312 313 312 311 311 312 311 305
163 247 79 281 258 243 250 249 234 230 237 246 256 270 267 280 281 280 276 295 296 304 332 336 328 328 334 329 326 324 325 327 321 314 318 319 318 318 318 318 318 318 319 319
156 143 114 262 336 312 283 236 228 208 216 223 235 241 266 276 277 281 294 296 286 297 334 338 324 327 327 330 329 327 327 324 322 325 328 326 323 321 325 329 329 331 335 335
154 150 156 265 1 262 241 197 186 209 240 222 243 249 242 251 276 293 272 269 278 313 335 316 320 323 327 330 326 327 324 331 331 334 332 329 328 326 333 342 340 347 357 16
152 153 216 200 221 299 288 196 170 174 261 222 226 248 253 265 302 287 252 172 266 271 291 313 324 321 325 330 331 328 336 340 336 338 339 336 333 332 343 349 356 12 24 40
168 224 157 117 200 243 237 124 122 117 286 225 198 229 239 198 225 258 170 187 286 260 284 321 329 323 329 339 338 339 345 337 342 343 349 343 346 352 354 4 20 42 49 54
145 239 215 207 247 275 247 151 148 101 245 83 182 210 204 193 215 215 154 263 243 265 286 328 333 319 328 344 351 348 348 340 337 3 8 359 3 3 12 25 41 47 57 59
167 171 186 187 215 270 152 90 188 213 238 198 198 204 189 208 235 259 262 254 266 257 257 305 322 308 331 354 2 354 350 350 353 15 18 8 14 14 23 40 45 53 62 65
214 195 179 195 210 208 182 202 220 164 216 231 217 227 225 222 234 244 250 238 237 253 262 245 254 283 318 2 7 3 353 1 358 27 23 22 27 35 34 34 44 53 55 60
235 211 227 104 221 234 205 238 257 217 234 240 239 237 219 225 247 249 241 245 239 252 242 217 214 242 267 345 21 359 359 8 9 14 42 31 32 36 47 53 51 53 58 66
192 161 199 256 262 299 245 227 239 242 239 247 233 224 232 221 250 240 243 240 229 244 234 215 217 225 233 207 112 345 356 8 15 9 37 41 39 43 46 53 56 65 69 81
185 179 195 229 184 211 240 222 234 226 233 235 235 244 236 224 239 235 232 238 230 239 237 216 225 228 226 212 182 186 320 20 31 20 20 63 61 49 60 68 72 71 76 77